Woodward, OK

11:59 AM CDT on May 29, 2017 (GMT -0500)
West Woodward

Weather History for KWWR - August, 2014

Change the Weather History Date:

Thursday, August 14, 2014

  Actual Average (KGAG) Record (KGAG)
Temperature  
Mean Temperature 84 °F -  
Max Temperature 98 °F 92 °F 107 °F (1956)
Min Temperature 71 °F 66 °F 51 °F (1999)
Cooling Degree Days 20    
Growing Degree Days 34 (Base 50)    
Moisture  
Dew Point 56 °F    
Average Humidity 41    
Maximum Humidity 64    
Minimum Humidity 20    
Precipitation  
Precipitation 0.00 in - - ()
Sea Level Pressure  
Sea Level Pressure 30.02 in    
Wind  
Wind Speed 11 mph (South)    
Max Wind Speed 17 mph    
Max Gust Speed 25 mph    
Visibility 10 miles    
Events      
Averages and records for this station are not official NWS values.
T = Trace of Precipitation, MM = Missing Value Source: NWS Daily Summary

Daily Weather History Graph

Daily Weather History Graph

Search for Another Location

Airport or City:

Trip Planner

Search our weather history database for the weather conditions in past years. The results will help you decide how hot, cold, wet, or windy it might be!

Date:

Astronomy

Aug. 14, 2014 Rise Set
Actual Time 6:55 AM CDT 8:29 PM CDT
Civil Twilight 6:27 AM CDT 8:57 PM CDT
Nautical Twilight 5:54 AM CDT 9:30 PM CDT
Astronomical Twilight 5:19 AM CDT 10:04 PM CDT
Moon 11:03 PM CDT (8/14) 11:24 AM CDT (8/14)
Length of Visible Light 14h 29m
Length of Day
13h 34m
Waning Gibbous, 79% of the Moon is Illuminated
Aug 14
Waning Gibbous
Aug 17
Last Quarter
Aug 25
New
Sep 2
First Quarter
Sep 8
Full

Hourly Weather History & Observations

Time (CDT) Temp. Heat Index Dew Point Humidity Pressure Visibility Wind Dir Wind Speed Gust Speed Precip Events Conditions
12:15 AM 77.0 °F - 59.0 °F 54% 30.08 in 10.0 mi SSE 10.4 mph - N/A   Clear
12:35 AM 77.0 °F - 59.0 °F 54% 30.08 in 10.0 mi SSE 8.1 mph - N/A   Clear
12:55 AM 77.0 °F - 59.0 °F 54% 30.08 in 10.0 mi SSE 9.2 mph - N/A   Clear
1:15 AM 77.0 °F - 59.0 °F 54% 30.08 in 10.0 mi SSE 8.1 mph - N/A   Clear
1:35 AM 77.0 °F - 59.0 °F 54% 30.07 in 10.0 mi SSE 8.1 mph - N/A   Clear
1:55 AM 77.0 °F - 59.0 °F 54% 30.07 in 10.0 mi SSE 8.1 mph - N/A   Clear
2:15 AM 77.0 °F - 57.2 °F 50% 30.07 in 10.0 mi South 8.1 mph - N/A   Clear
2:35 AM 77.0 °F - 57.2 °F 50% 30.07 in 10.0 mi South 6.9 mph - N/A   Clear
2:55 AM 77.0 °F - 59.0 °F 54% 30.07 in 10.0 mi South 9.2 mph - N/A   Clear
3:15 AM 77.0 °F - 57.2 °F 50% 30.06 in 10.0 mi SSW 11.5 mph - N/A   Clear
3:35 AM 77.0 °F - 57.2 °F 50% 30.05 in 10.0 mi SSW 12.7 mph - N/A   Clear
3:55 AM 77.0 °F - 57.2 °F 50% 30.05 in 10.0 mi SSW 13.8 mph 20.7 mph N/A   Clear
4:15 AM 75.2 °F - 57.2 °F 53% 30.05 in 10.0 mi SSW 15.0 mph 18.4 mph N/A   Clear
4:35 AM 75.2 °F - 57.2 °F 53% 30.05 in 10.0 mi SSW 13.8 mph 20.7 mph N/A   Clear
5:15 AM 73.4 °F - 57.2 °F 57% 30.05 in 10.0 mi SSW 11.5 mph - N/A   Clear
5:35 AM 73.4 °F - 57.2 °F 57% 30.05 in 10.0 mi SSW 11.5 mph - N/A   Clear
5:55 AM 73.4 °F - 57.2 °F 57% 30.05 in 10.0 mi SSW 13.8 mph - N/A   Clear
6:15 AM 71.6 °F - 57.2 °F 60% 30.05 in 10.0 mi SSW 12.7 mph 17.3 mph N/A   Clear
6:35 AM 71.6 °F - 57.2 °F 60% 30.05 in 10.0 mi SSW 12.7 mph 17.3 mph N/A   Clear
6:55 AM 71.6 °F - 57.2 °F 60% 30.05 in 10.0 mi SSW 12.7 mph - N/A   Clear
7:15 AM 71.6 °F - 57.2 °F 60% 30.07 in 10.0 mi SSW 11.5 mph - N/A   Clear
7:35 AM 71.6 °F - 59.0 °F 64% 30.07 in 10.0 mi SSW 12.7 mph - N/A   Clear
7:55 AM 71.6 °F - 59.0 °F 64% 30.07 in 10.0 mi SSW 12.7 mph 17.3 mph N/A   Clear
8:15 AM 71.6 °F - 59.0 °F 64% 30.07 in 10.0 mi SSW 13.8 mph - N/A   Clear
8:35 AM 73.4 °F - 59.0 °F 61% 30.06 in 10.0 mi SSW 12.7 mph - N/A   Clear
8:55 AM 75.2 °F - 59.0 °F 57% 30.07 in 10.0 mi SSW 12.7 mph - N/A   Clear
9:15 AM 77.0 °F - 59.0 °F 54% 30.06 in 10.0 mi SSW 11.5 mph - N/A   Clear
9:35 AM 78.8 °F - 59.0 °F 51% 30.06 in 10.0 mi SSW 15.0 mph - N/A   Clear
9:55 AM 82.4 °F 82.5 °F 59.0 °F 45% 30.05 in 10.0 mi SSW 16.1 mph 21.9 mph N/A   Clear
10:15 AM 82.4 °F 82.5 °F 59.0 °F 45% 30.06 in 10.0 mi SSW 11.5 mph - N/A   Clear
10:35 AM 84.2 °F 83.8 °F 59.0 °F 42% 30.05 in 10.0 mi SSW 15.0 mph 18.4 mph N/A   Clear
10:55 AM 86.0 °F 85.4 °F 59.0 °F 40% 30.05 in 10.0 mi SSW 10.4 mph - N/A   Clear
11:15 AM 87.8 °F 87.1 °F 59.0 °F 38% 30.05 in 10.0 mi WSW 12.7 mph 18.4 mph N/A   Clear
11:35 AM 89.6 °F 88.9 °F 59.0 °F 36% 30.05 in 10.0 mi SW 15.0 mph - N/A   Clear
12:15 PM 89.6 °F 88.9 °F 59.0 °F 36% 30.04 in 10.0 mi SW 11.5 mph - N/A   Clear
12:35 PM 93.2 °F 92.6 °F 59.0 °F 32% 30.04 in 10.0 mi SW 11.5 mph 18.4 mph N/A   Clear
12:55 PM 95.0 °F 94.4 °F 59.0 °F 30% 30.03 in 10.0 mi WSW 9.2 mph 18.4 mph N/A   Clear
1:15 PM 95.0 °F 94.4 °F 59.0 °F 30% 30.03 in 10.0 mi SW 10.4 mph - N/A   Clear
1:35 PM 96.8 °F 95.8 °F 57.2 °F 27% 30.02 in 10.0 mi South 8.1 mph - N/A   Clear
1:55 PM 96.8 °F 95.1 °F 55.4 °F 25% 30.02 in 10.0 mi South 12.7 mph - N/A   Clear
2:15 PM 96.8 °F - 51.8 °F 22% 30.01 in 10.0 mi SSW 13.8 mph 17.3 mph N/A   Clear
2:55 PM 96.8 °F 94.4 °F 53.6 °F 23% 30.01 in 10.0 mi South 12.7 mph 19.6 mph N/A   Clear
3:15 PM 96.8 °F 94.4 °F 53.6 °F 23% 30.01 in 10.0 mi South 11.5 mph 17.3 mph N/A   Clear
3:35 PM 98.6 °F 96.4 °F 53.6 °F 22% 30.00 in 10.0 mi South 11.5 mph 17.3 mph N/A   Clear
3:55 PM 95.0 °F 93.0 °F 55.4 °F 26% 29.99 in 10.0 mi South 10.4 mph - N/A   Clear
4:15 PM 96.8 °F 94.4 °F 53.6 °F 23% 29.99 in 10.0 mi SSW 11.5 mph - N/A   Clear
4:35 PM 96.8 °F - 50.0 °F 20% 29.99 in 10.0 mi South 8.1 mph 17.3 mph N/A   Clear
4:55 PM 96.8 °F - 51.8 °F 22% 29.98 in 10.0 mi SSE 11.5 mph 20.7 mph N/A   Clear
5:15 PM 96.8 °F 94.4 °F 53.6 °F 23% 29.97 in 10.0 mi SSE 12.7 mph 18.4 mph N/A   Scattered Clouds
5:35 PM 95.0 °F - 50.0 °F 22% 29.96 in 10.0 mi South 11.5 mph 16.1 mph N/A   Clear
5:55 PM 95.0 °F - 51.8 °F 23% 29.96 in 10.0 mi South 11.5 mph 18.4 mph N/A   Clear
6:15 PM 93.2 °F - 51.8 °F 24% 29.96 in 10.0 mi South 13.8 mph - N/A   Clear
6:35 PM 91.4 °F - 51.8 °F 26% 29.96 in 10.0 mi South 13.8 mph 21.9 mph N/A   Clear
6:55 PM 91.4 °F - 51.8 °F 26% 29.95 in 10.0 mi South 11.5 mph 19.6 mph N/A   Clear
7:15 PM 91.4 °F - 51.8 °F 26% 29.95 in 10.0 mi SSE 11.5 mph - N/A   Clear
7:35 PM 89.6 °F - 51.8 °F 27% 29.95 in 10.0 mi SSE 10.4 mph - N/A   Clear
7:55 PM 89.6 °F 87.3 °F 53.6 °F 29% 29.95 in 10.0 mi SSE 8.1 mph - N/A   Clear
8:15 PM 87.8 °F 85.7 °F 53.6 °F 31% 29.95 in 10.0 mi SSE 8.1 mph - N/A   Clear
8:35 PM 86.0 °F 84.5 °F 55.4 °F 35% 29.95 in 10.0 mi SSE 9.2 mph - N/A   Clear
8:55 PM 86.0 °F 84.2 °F 53.6 °F 33% 29.95 in 10.0 mi SSE 8.1 mph - N/A   Clear
9:15 PM 86.0 °F 84.2 °F 53.6 °F 33% 29.96 in 10.0 mi SSE 9.2 mph - N/A   Clear
9:35 PM 86.0 °F 84.2 °F 53.6 °F 33% 29.97 in 10.0 mi SSE 10.4 mph - N/A   Clear
9:55 PM 86.0 °F - 51.8 °F 31% 29.98 in 10.0 mi SSE 9.2 mph - N/A   Clear
10:15 PM 86.0 °F 84.2 °F 53.6 °F 33% 29.99 in 10.0 mi SE 9.2 mph - N/A   Clear
10:35 PM 86.0 °F 84.2 °F 53.6 °F 33% 29.99 in 10.0 mi SSE 12.7 mph - N/A   Clear
10:55 PM 86.0 °F 84.2 °F 53.6 °F 33% 29.99 in 10.0 mi SSE 13.8 mph - N/A   Clear
11:15 PM 84.2 °F 82.8 °F 53.6 °F 35% 29.99 in 10.0 mi SSE 12.7 mph 18.4 mph N/A   Clear
11:35 PM 84.2 °F 82.8 °F 53.6 °F 35% 29.99 in 10.0 mi SSE 17.3 mph 25.3 mph N/A   Clear
11:55 PM 82.4 °F 81.7 °F 55.4 °F 39% 30.00 in 10.0 mi SSE 15.0 mph - N/A   Clear